New Castle, PA

3:34 PM EDT on May 26, 2017 (GMT -0400)
New Castle Municipal

Weather History for KUCP - March, 2013

Change the Weather History Date:

Thursday, March 28, 2013

  Actual Average Record
Temperature  
Mean Temperature 36 °F -  
Max Temperature 39 °F 55 °F 81 °F (1945)
Min Temperature 32 °F 29 °F 8 °F (1959)
Degree Days  
Heating Degree Days 30    
Moisture  
Dew Point 30 °F    
Average Humidity 81    
Maximum Humidity 93    
Minimum Humidity 63    
Precipitation  
Precipitation 0.00 in - - ()
Sea Level Pressure  
Sea Level Pressure 30.22 in    
Wind  
Wind Speed 6 mph (WNW)    
Max Wind Speed 13 mph    
Max Gust Speed -    
Visibility 8 miles    
Events Snow    
Averages and records for this station are not official NWS values.
T = Trace of Precipitation, MM = Missing Value Source: NWS Daily Summary

Daily Weather History Graph

Daily Weather History Graph

Search for Another Location

Airport or City:

Trip Planner

Search our weather history database for the weather conditions in past years. The results will help you decide how hot, cold, wet, or windy it might be!

Date:

Astronomy

Mar. 28, 2013 Rise Set
Actual Time 7:11 AM EDT 7:42 PM EDT
Civil Twilight 6:43 AM EDT 8:10 PM EDT
Nautical Twilight 6:11 AM EDT 8:42 PM EDT
Astronomical Twilight 5:37 AM EDT 9:16 PM EDT
Moon 9:34 PM EDT (3/28) 7:37 AM EDT (3/28)
Length of Visible Light 13h 26m
Length of Day
12h 31m
Full, 98% of the Moon is Illuminated
Mar 28
Full
Apr 3
Last Quarter
Apr 10
New
Apr 18
First Quarter
Apr 25
Full

Hourly Weather History & Observations

Time (EDT) Temp. Windchill Dew Point Humidity Pressure Visibility Wind Dir Wind Speed Gust Speed Precip Events Conditions
12:13 AM 35.6 °F - 30.2 °F 81% 30.14 in 10.0 mi Calm Calm - N/A   Mostly Cloudy
12:40 AM 33.8 °F - 30.2 °F 87% 30.14 in 10.0 mi Calm Calm - 0.00 in   Overcast
12:56 AM 34.0 °F 29.8 °F 31.1 °F 89% 30.21 in 10.0 mi West 4.6 mph - 0.00 in   Overcast
1:42 AM 33.8 °F 29.6 °F 30.2 °F 87% 30.13 in 10.0 mi West 4.6 mph - 0.00 in   Overcast
1:56 AM 34.0 °F 28.8 °F 31.1 °F 89% 30.20 in 10.0 mi West 5.8 mph - 0.00 in   Overcast
2:22 AM 33.8 °F 27.0 °F 30.2 °F 87% 30.13 in 6.0 mi West 8.1 mph - 0.00 in Snow Light Snow
2:56 AM 34.0 °F 28.0 °F 31.1 °F 89% 30.21 in 8.0 mi West 6.9 mph - 0.00 in Snow Light Snow
3:29 AM 33.8 °F 25.8 °F 30.2 °F 87% 30.13 in 10.0 mi West 10.4 mph - 0.00 in Snow Light Snow
3:56 AM 34.0 °F 27.2 °F 30.0 °F 85% 30.20 in 10.0 mi West 8.1 mph - 0.00 in   Overcast
4:03 AM 33.8 °F 26.4 °F 30.2 °F 87% 30.12 in 10.0 mi West 9.2 mph - 0.00 in Snow Light Snow
4:32 AM 33.8 °F 27.0 °F 30.2 °F 87% 30.13 in 7.0 mi West 8.1 mph - 0.00 in Snow Light Snow
4:56 AM 33.8 °F 27.0 °F 30.2 °F 87% 30.13 in 9.0 mi West 8.1 mph - N/A Snow Light Snow
5:56 AM 32.0 °F 25.6 °F 30.0 °F 92% 30.22 in 6.0 mi West 6.9 mph - 0.00 in Snow Light Snow
6:08 AM 32.0 °F 26.4 °F 30.2 °F 93% 30.14 in 6.0 mi West 5.8 mph - 0.00 in Snow Light Snow
6:56 AM 32.0 °F 27.5 °F 30.0 °F 92% 30.23 in 5.0 mi West 4.6 mph - 0.00 in Snow Light Snow
7:36 AM 32.0 °F 26.4 °F 30.2 °F 93% 30.17 in 2.5 mi West 5.8 mph - 0.00 in Snow Light Snow
7:43 AM 32.0 °F 25.6 °F 30.2 °F 93% 30.18 in 3.0 mi West 6.9 mph - 0.00 in Snow Light Snow
7:56 AM 32.0 °F 26.4 °F 30.2 °F 93% 30.18 in 3.0 mi West 5.8 mph - N/A Snow Light Snow
8:25 AM 32.0 °F 26.4 °F 30.2 °F 93% 30.18 in 4.0 mi West 5.8 mph - 0.00 in Snow Light Snow
8:35 AM 33.8 °F 28.6 °F 30.2 °F 87% 30.18 in 5.0 mi WSW 5.8 mph - 0.00 in Snow Light Snow
8:56 AM 32.9 °F 25.9 °F 31.1 °F 93% 30.26 in 5.0 mi West 8.1 mph - 0.00 in Snow Light Snow
9:10 AM 33.8 °F 27.0 °F 30.2 °F 87% 30.19 in 7.0 mi West 8.1 mph - 0.00 in Snow Light Snow
9:24 AM 33.8 °F 27.7 °F 30.2 °F 87% 30.19 in 10.0 mi West 6.9 mph - 0.00 in Snow Light Snow
9:56 AM 34.9 °F 28.3 °F 29.1 °F 79% 30.27 in 10.0 mi WNW 8.1 mph - 0.00 in   Scattered Clouds
10:39 AM 35.6 °F 28.6 °F 30.2 °F 81% 30.21 in 8.0 mi WNW 9.2 mph - 0.00 in Snow Light Snow
10:56 AM 35.6 °F 28.0 °F 28.4 °F 75% 30.22 in 10.0 mi WNW 10.4 mph - N/A Snow Light Snow
11:56 AM 36.9 °F 29.1 °F 30.0 °F 76% 30.30 in 10.0 mi West 11.5 mph - 0.00 in Snow Light Snow
12:56 PM 38.8 °F 31.2 °F 30.0 °F 71% 30.29 in 10.0 mi NW 12.7 mph - 0.00 in   Overcast
1:56 PM 37.9 °F 32.7 °F 28.0 °F 68% 30.30 in 10.0 mi Variable 6.9 mph - N/A   Overcast
2:56 PM 39.9 °F 32.9 °F 29.1 °F 65% 30.29 in 10.0 mi NW 11.5 mph - N/A   Overcast
3:12 PM 39.2 °F 32.0 °F 28.4 °F 65% 30.21 in 10.0 mi NW 11.5 mph - N/A   Overcast
3:37 PM 39.2 °F 32.0 °F 28.4 °F 65% 30.21 in 10.0 mi NNW 11.5 mph - N/A   Overcast
3:56 PM 39.9 °F 33.4 °F 29.1 °F 65% 30.29 in 10.0 mi NW 10.4 mph - N/A   Overcast
4:56 PM 39.9 °F 33.4 °F 29.1 °F 65% 30.29 in 10.0 mi West 10.4 mph - N/A   Overcast
5:56 PM 39.9 °F 35.1 °F 29.1 °F 65% 30.30 in 10.0 mi West 6.9 mph - N/A   Overcast
6:56 PM 39.9 °F 35.1 °F 28.0 °F 63% 30.31 in 10.0 mi NW 6.9 mph - N/A   Mostly Cloudy
7:56 PM 38.8 °F 34.6 °F 29.1 °F 68% 30.32 in 10.0 mi North 5.8 mph - N/A   Overcast
8:56 PM 37.9 °F - 28.0 °F 68% 30.33 in 10.0 mi Calm Calm - N/A   Overcast
9:56 PM 36.9 °F - 28.0 °F 70% 30.34 in 10.0 mi Calm Calm - N/A   Overcast
10:56 PM 36.0 °F - 28.0 °F 73% 30.34 in 10.0 mi Calm Calm - N/A   Mostly Cloudy
11:56 PM 34.9 °F - 28.0 °F 76% 30.34 in 10.0 mi Calm Calm - N/A   Overcast